Flag for Germany Weather past 2 weeks in Neuwied, Rhineland-Palatinate, Germany

Now
59 °F

Scattered clouds.


Feels Like: 58 °F
Forecast: 49 / 71 °F
Wind: 8 mph from West

Location: Buechel

Current Time: Jul 30, 2015 at 12:23:33 PM

Latest Report: Jul 30, 2015 at 11:20 AM


Visibility: N/A

Pressure: 30.01 "Hg

Humidity: 55%

Dew point: 43 °F

Location of NeuwiedLocation

Historic Weather in Neuwied — Graph

°F

Neuwied temperature yesterday

Maximum temperature yesterday: 63 °F (at 5:20 PM)
Minimum temperature yesterday: 50 °F (at 5:20 AM)
Average temperature yesterday: 55 °F

Past Weeks' High & Low Weather Summary

 TemperatureHumidityPressure
High88 °F (Jul 17, 2:20 PM)100% (Jul 16, 3:20 AM)30.15 "Hg (Jul 16, 3:20 AM)
Low45 °F (Jul 30, 3:20 AM)21% (Jul 17, 2:20 PM)29.62 "Hg (Jul 27, 4:20 AM)
Average64 °F71%29.93 "Hg
* Reported Jul 15 10:20 AM — Jul 30 10:20 AM, Neuwied, Weather by CustomWeather, © 2015

Note: Actual official high and low records may vary slightly from our data, if they occured in-between our weather recording intervals... More about our weather records

Advertising

Neuwied weather history for previous 24 hours

 ConditionsComfort  
Time TempWeatherWind HumidityBarometerVisibility
10:20 AM
Thu, Jul 30
55 °FPassing clouds.10 mph67%30.01 "HgN/A
9:20 AM52 °FPassing clouds.8 mph82%30.01 "HgN/A
8:20 AM50 °FPassing clouds.6 mph82%29.98 "HgN/A
7:20 AM45 °FPassing clouds.5 mph93%29.98 "HgN/A
6:20 AM45 °FQuite cool.6 mph93%29.98 "HgN/A
5:20 AM45 °FQuite cool.5 mph87%29.98 "HgN/A
4:20 AM46 °FCool.5 mph82%29.95 "HgN/A
3:20 AM45 °FQuite cool.5 mph87%29.95 "HgN/A
2:20 AM46 °FCool.5 mph82%29.95 "HgN/A
1:20 AM48 °FCool.6 mph76%29.95 "HgN/A
12:20 AM48 °FCool.5 mph76%29.95 "HgN/A
11:20 PM
Wed, Jul 29
50 °FCool.5 mph71%29.95 "HgN/A
10:20 PM54 °FCool.6 mph63%29.95 "HgN/A
9:20 PM55 °FRefreshingly cool.7 mph59%29.92 "HgN/A
8:20 PM59 °FRefreshingly cool.12 mph51%29.89 "HgN/A
7:20 PM59 °FRefreshingly cool.9 mph51%29.89 "HgN/A
6:20 PM61 °FRefreshingly cool.12 mph45%29.86 "HgN/A
5:20 PM63 °FMild.13 mph45%29.86 "HgN/A
4:20 PM61 °FRefreshingly cool.15 mph42%29.86 "HgN/A
3:20 PM61 °FPartly sunny.12 mph45%29.83 "HgN/A
2:20 PM61 °FPartly sunny.14 mph42%29.80 "HgN/A
1:20 PM59 °FPartly sunny.13 mph48%29.80 "HgN/A
12:20 PM61 °FScattered clouds.12 mph45%29.80 "HgN/A
Weather by CustomWeather, © 2015

See weather overviewHow to use our weather pages